Location: Most
(50.5133°N, 13.6207°E)
Time: 18:44:42
(UTC+02:00)

ISS - Pass Details

Date: 23 May 2019
Orbit: 407 x 410 km, 51.6° (Epoch: 23 May)

Event Time Altitude Azimuth Distance (km) Brightness Sun altitude
Rises 01:54:29 0° 286° (WNW) 2,339 0.1 -18.1°
Reaches altitude 10° 01:56:39 10° 277° (W) 1,476 -1.1 -18.0°
Enters shadow 01:57:18 14° 272° (W) 1,236 -1.5 -18.0°
